Regional Weather Roundup
Issued by NWS Portland, ME

Home | Current Version | Previous Version | Text Only | Print | Product List | Glossary On
Versions: 1 2 3 4 5 6 7 8 9 10 11 12 13 14 15 16 17 18 19 20 21 22 23 24 25 26 27 28 29 30 31 32 33 34 35 36 37 38 39 40 41 42 43 44 45 46 47 48 49 50
000
ASUS41 KGYX 252305
RWRGYX
WEATHER ROUNDUP FOR MAINE AND NEW HAMPSHIRE
NATIONAL WEATHER SERVICE GRAY ME
700 PM EDT MON MAY 25 2015

MEZ002-005-006-010-012-015-018-020-021-024-026-027-029-260000-
MAINE

CITY           SKY/WX    TMP DP  RH WIND       PRES   REMARKS
PORTLAND       CLOUDY    71  52  50 S6        30.13F
BAR HARBOR     MOCLDY    63  52  67 SW12      30.12F
WISCASSET      CLOUDY    71  51  49 VRB3      30.15S
ROCKLAND       CLOUDY    68  48  49 SW8       30.13S
FRYEBURG       CLOUDY    72  56  57 CALM      30.13S
LEWISTONAUBURN CLOUDY    72  54  53 SE6       30.13S
AUGUSTA        CLOUDY    73  51  46 SW5       30.13S
WATERVILLE       N/A    N/A N/A N/A MISG        N/A
BANGOR         CLOUDY    76  50  40 SW8       30.10S
GREENVILLE       N/A     67  51  56 MISG      30.11R
MILLINOCKET    CLOUDY    73  51  46 CALM      30.09S
HOULTON        CLOUDY    72  47  40 SW8       30.06R
PRESQUE ISLE   CLOUDY    72  45  37 W13G18    30.05R
FRENCHVILLE    PTSUNNY   70  46  42 SW14G24   30.01R
CARIBOU        PTSUNNY   72  46  39 W13G23    30.02R
$$

NHZ002-005-008-009-011-012-014-260000-
NEW HAMPSHIRE

CITY           SKY/WX    TMP DP  RH WIND       PRES   REMARKS
PORTSMOUTH     PTSUNNY   75  55  49 SE9       30.11F
ROCHESTER      PTSUNNY   77  57  50 CALM      30.12F
NASHUA         MOSUNNY   80  56  43 VRB6      30.13S
MANCHESTER     PTSUNNY   80  55  42 S12       30.10S
CONCORD        MOSUNNY   78  58  49 SE6       30.11F
LACONIA        CLOUDY    75  54  46 S5        30.10S
PLYMOUTH       PTSUNNY   73  60  63 CALM      30.11F
BERLIN         LGT RAIN  67  55  65 CALM      30.13S
WHITEFIELD     CLOUDY    66  58  75 CALM      30.12S
JAFFREY        MOSUNNY   76  54  46 S10G21    30.15S
KEENE          MOSUNNY   79  55  44 S9        30.12S
LEBANON        CLOUDY    71  59  65 S6        30.09F
MT WASHINGTON  LGT RAIN  48  43  81 W45G55      N/A
$$

VTZ005-007-008-260000-
VERMONT

CITY           SKY/WX    TMP DP  RH WIND       PRES   REMARKS
ST JOHNSBURY     N/A     65  59  81 MISG      30.09F
MONTPELIER     LGT RAIN  66  55  67 SW7       30.14F
BURLINGTON     CLOUDY    73  56  54 S7        30.03F
$$

MAZ007-012-024-CTZ003-RIZ002-NYZ038-NYZ072-260000-
SOUTHERN NEW ENGLAND AND NY

CITY           SKY/WX    TMP DP  RH WIND       PRES   REMARKS
BOSTON         PTSUNNY   73  56  54 S17       30.16S
WORCESTER      MOSUNNY   75  54  47 S16       30.18S
NANTUCKET      CLOUDY    60  55  83 SW13      30.26S
PROVIDENCE     PTSUNNY   68  56  65 SE10      30.20S
HARTFORD       PTSUNNY   79  56  45 S18G25    30.13S
ALBANY         PTSUNNY   84  56  38 S8        30.04F
NEW YORK CITY  PTSUNNY   80  57  45 S13       30.15S
$$

ANZ081-ANZ082-ANZ150-NHZ014-MEZ023>029-260000-
COASTAL MARINE OBSERVATIONS

STATION/POSITION TIME  TEMP    WIND        PRES    WAVE
                       AIR SEA DIR/SP/G            HT/PER
                 (UTC) (F)     (DEG/KT/KT) (MB)    (FT/S)
MOUNT DESERT ROC 2300   51     200/ 21/ 22   N/A
MATINICUS ROCK   2200   53     220/ 20/ 21   N/A
ISLE OF SHOALS   2200   69     170/ 21/ 22   N/A
JEFFREYS LEDGE   2203      49                N/A     2/ 3
CASHES LEDGE BUO 2250   55 49                N/A     3/ 5
GEORGES BANK BUO 2150   55 49  200/ 12/ 12   N/A     2/ 5
$$

.............KEY..............
   WCI - WIND CHILL
   TC  - TEMPERATURE IN CELSIUS
   VSB - VISIBILITY IN MILES
   HX  - HEAT INDEX
   FAIR- INDICATES FEW OR NO CLOUDS BELOW 12,000 FT, WITH NO
         SIGNIFICANT WEATHER AND/OR OBSTRUCTIONS TO VISIBILITY.




USA.gov is the U.S. government's official web portal to all federal, state and local government web resources and services.